Flag for USA

Past Weather in Phenix City, Alabama, USA — Yesterday and Last 2 Weeks

Now
68 °F

Clear.


Feels Like: 68 °F
Forecast: 82 / 66 °F
Wind: 7 mph from East

Location: Columbus Metropolitan Airport
Current Time: Oct 22, 2020 at 6:17:15 am
Latest Report: Oct 22, 2020 at 4:51 am
Visibility: 10 mi
Pressure30.10 "Hg
Humidity: 87%
Dew Point: 64 °F
Location of Phenix CityLocation

Past Weather in Phenix City — Graph

°F

Phenix City Temperature Yesterday

Maximum temperature yesterday: 83 °F (at 3:51 pm)
Minimum temperature yesterday: 67 °F (at 1:51 am)
Average temperature yesterday: 72 °F

High & Low Weather Summary for the Past Weeks

 TemperatureHumidityPressure
High89 °F (Oct 7, 4:51 pm)100% (Oct 15, 9:09 am)30.29 "Hg (Oct 15, 9:09 am)
Low48 °F (Oct 17, 7:51 am)43% (Oct 16, 5:51 pm)29.75 "Hg (Oct 11, 4:51 am)
Average71 °F77%30.03 "Hg
* Reported Oct 7 4:31 am — Oct 22 4:51 am, Phenix City. Weather by CustomWeather, © 2020

Note: Actual official high and low records may vary slightly from our data, if they occured in-between our weather recording intervals... More about our weather records

Phenix City Weather History for the Previous 24 Hours

Scroll right to see more
 ConditionsComfort  
Time TempWeatherWind HumidityBarometerVisibility
4:51 am
Thu, Oct 22
68 °FClear.7 mph87%30.10 "Hg10 mi
3:51 am68 °FClear.5 mph90%30.10 "Hg10 mi
2:51 am69 °FClear.6 mph87%30.10 "Hg10 mi
1:51 am69 °FClear.7 mph87%30.10 "Hg10 mi
12:51 am69 °FClear.5 mph87%30.11 "Hg10 mi
11:51 pm
Wed, Oct 21
70 °FClear.7 mph87%30.13 "Hg10 mi
10:51 pm72 °FClear.7 mph81%30.13 "Hg10 mi
9:51 pm71 °FClear.3 mph84%30.13 "Hg10 mi
8:51 pm73 °FClear.3 mph81%30.12 "Hg10 mi
7:51 pm74 °FClear.3 mph74%30.12 "Hg10 mi
6:51 pm78 °FPassing clouds.7 mph69%30.11 "Hg10 mi
5:51 pm80 °FBroken clouds.8 mph67%30.10 "Hg10 mi
4:51 pm82 °FBroken clouds.8 mph58%30.10 "Hg10 mi
3:51 pm83 °FScattered clouds.10 mph57%30.10 "Hg10 mi
2:51 pm82 °FMore clouds than sun.12 mph60%30.12 "Hg10 mi
1:51 pm79 °FPassing clouds.8 mph67%30.14 "Hg10 mi
1:39 pm79 °FScattered clouds.9 mph67%30.16 "Hg10 mi
1:19 pm79 °FPartly sunny.8 mph67%30.17 "Hg10 mi
12:51 pm78 °FPassing clouds.9 mph69%30.16 "Hg10 mi
11:51 am76 °FScattered clouds.N/A72%30.18 "Hg10 mi
11:12 am73 °FOvercast.10 mph81%30.21 "HgN/A
10:51 am72 °FLow clouds.12 mph84%30.20 "Hg10 mi
9:51 am70 °FLow clouds.10 mph87%30.19 "Hg10 mi
9:09 am68 °FLow clouds.10 mph93%30.19 "Hg10 mi
8:51 am68 °FLow clouds.7 mph90%30.18 "Hg10 mi
8:11 am67 °FLow clouds.8 mph93%30.18 "Hg9 mi
7:51 am67 °FLow clouds.10 mph93%30.16 "Hg10 mi
7:11 am67 °FPassing clouds.6 mph90%30.16 "Hg10 mi
7:05 am67 °FPassing clouds.5 mph90%30.16 "Hg10 mi
6:51 am67 °FClear.6 mph90%30.14 "Hg10 mi
Weather by CustomWeather, © 2020

See weather overview